When you browse on this site, cookies collect data to enhance your experience and personalize the content and advertising you see.
Visit our Privacy Policy to learn more. By continuing to use the site, you agree to this use of cookies and data.
  • en Suisse
  • Liste des pays
  • À 7 jours
  • Température de l'eau
  • Carte météo
  • Widgets météo
  • user-avatar
    Se connecter

    Météo par heure à Pabna

    Ce jour, 23 Janvier, Jeudi

    Heure Température Précipitation Vent Pression Humidité
    00:00 +19°C° 0 mm 1 m/s 760 mmHg 48%
    01:00 +18°C° 0 mm 1 m/s 759 mmHg 49%
    02:00 +18°C° 0 mm 1 m/s 759 mmHg 50%
    03:00 +16°C° 0 mm 1 m/s 759 mmHg 51%
    04:00 +16°C° 0 mm 1 m/s 759 mmHg 50%
    05:00 +16°C° 0 mm 1 m/s 759 mmHg 50%
    06:00 +18°C° 0 mm 1 m/s 759 mmHg 52%
    07:00 +19°C° 0 mm 1 m/s 760 mmHg 51%
    08:00 +19°C° 0 mm 1 m/s 760 mmHg 50%
    09:00 +20°C° 0 mm 1 m/s 761 mmHg 49%
    10:00 +21°C° 0 mm 1 m/s 761 mmHg 45%
    11:00 +21°C° 0 mm 2 m/s 760 mmHg 41%
    12:00 +24°C° 0 mm 2 m/s 761 mmHg 38%
    13:00 +24°C° 0 mm 2 m/s 759 mmHg 37%
    14:00 +25°C° 0 mm 3 m/s 758 mmHg 35%
    15:00 +25°C° 0 mm 4 m/s 757 mmHg 34%
    16:00 +24°C° 0 mm 3 m/s 757 mmHg 37%
    17:00 +21°C° 0 mm 2 m/s 757 mmHg 40%
    18:00 +21°C° 0 mm 1 m/s 758 mmHg 45%
    19:00 +20°C° 0 mm 1 m/s 758 mmHg 45%
    20:00 +19°C° 0 mm 1 m/s 758 mmHg 46%
    21:00 +19°C° 0 mm 1 m/s 759 mmHg 47%
    22:00 +18°C° 0 mm 1 m/s 759 mmHg 47%
    23:00 +18°C° 0 mm 1 m/s 759 mmHg 46%

    Demain, 24 Janvier, Vendredi

    Heure Température Précipitation Vent Pression Humidité
    00:00 +16°C° 0 mm 1 m/s 759 mmHg 46%
    01:00 +15°C° 0 mm 1 m/s 759 mmHg 48%
    02:00 +15°C° 0 mm 1 m/s 759 mmHg 50%
    03:00 +14°C° 0 mm 1 m/s 758 mmHg 52%
    04:00 +14°C° 0 mm 1 m/s 759 mmHg 54%
    05:00 +14°C° 0 mm 1 m/s 759 mmHg 56%
    06:00 +13°C° 0 mm 2 m/s 759 mmHg 57%
    07:00 +15°C° 0 mm 2 m/s 760 mmHg 54%
    08:00 +17°C° 0 mm 2 m/s 760 mmHg 50%
    09:00 +18°C° 0 mm 2 m/s 761 mmHg 47%
    10:00 +20°C° 0 mm 2 m/s 761 mmHg 42%
    11:00 +21°C° 0 mm 2 m/s 761 mmHg 37%
    12:00 +24°C° 0 mm 2 m/s 760 mmHg 32%
    13:00 +24°C° 0 mm 3 m/s 759 mmHg 30%
    14:00 +25°C° 0 mm 3 m/s 759 mmHg 28%
    15:00 +25°C° 0 mm 4 m/s 758 mmHg 26%
    16:00 +24°C° 0 mm 3 m/s 758 mmHg 30%
    17:00 +21°C° 0 mm 3 m/s 757 mmHg 33%
    18:00 +19°C° 0 mm 2 m/s 757 mmHg 37%
    19:00 +18°C° 0 mm 2 m/s 758 mmHg 39%
    20:00 +17°C° 0 mm 2 m/s 758 mmHg 42%
    21:00 +17°C° 0 mm 2 m/s 759 mmHg 44%
    22:00 +16°C° 0 mm 2 m/s 759 mmHg 45%
    23:00 +16°C° 0 mm 2 m/s 759 mmHg 46%

    Après-demain, 25 Janvier, Samedi

    Heure Température Précipitation Vent Pression Humidité
    00:00 +15°C° 0 mm 2 m/s 759 mmHg 48%
    01:00 +15°C° 0 mm 2 m/s 759 mmHg 49%
    02:00 +15°C° 0 mm 2 m/s 758 mmHg 51%
    03:00 +14°C° 0 mm 2 m/s 758 mmHg 53%
    04:00 +14°C° 0 mm 2 m/s 758 mmHg 55%
    05:00 +13°C° 0 mm 2 m/s 758 mmHg 57%
    06:00 +13°C° 0 mm 2 m/s 759 mmHg 59%
    07:00 +14°C° 0 mm 2 m/s 759 mmHg 55%
    08:00 +16°C° 0 mm 2 m/s 760 mmHg 50%
    09:00 +18°C° 0 mm 2 m/s 760 mmHg 46%
    10:00 +20°C° 0 mm 1 m/s 760 mmHg 42%
    11:00 +22°C° 0 mm 1 m/s 760 mmHg 37%
    12:00 +24°C° 0 mm 1 m/s 759 mmHg 33%
    13:00 +24°C° 0 mm 1 m/s 758 mmHg 31%
    14:00 +25°C° 0 mm 1 m/s 757 mmHg 30%
    15:00 +25°C° 0 mm 1 m/s 757 mmHg 28%
    16:00 +24°C° 0 mm 1 m/s 756 mmHg 33%
    17:00 +22°C° 0 mm 1 m/s 756 mmHg 37%
    18:00 +20°C° 0 mm 1 m/s 756 mmHg 41%
    19:00 +20°C° 0 mm 1 m/s 756 mmHg 43%
    20:00 +19°C° 0 mm 1 m/s 757 mmHg 45%
    21:00 +18°C° 0 mm 1 m/s 757 mmHg 47%
    22:00 +18°C° 0 mm 1 m/s 757 mmHg 48%
    23:00 +17°C° 0 mm 2 m/s 757 mmHg 48%

    26 Janvier, Dimanche

    Heure Température Précipitation Vent Pression Humidité
    00:00 +16°C° 0 mm 2 m/s 757 mmHg 48%
    01:00 +16°C° 0 mm 2 m/s 757 mmHg 50%
    02:00 +15°C° 0 mm 2 m/s 756 mmHg 52%
    03:00 +15°C° 0 mm 2 m/s 756 mmHg 54%
    04:00 +15°C° 0 mm 2 m/s 756 mmHg 57%
    05:00 +14°C° 0 mm 2 m/s 756 mmHg 59%
    06:00 +14°C° 0 mm 2 m/s 757 mmHg 62%
    07:00 +16°C° 0 mm 2 m/s 757 mmHg 58%
    08:00 +17°C° 0 mm 2 m/s 758 mmHg 54%
    09:00 +19°C° 0 mm 3 m/s 759 mmHg 50%
    10:00 +20°C° 0 mm 3 m/s 758 mmHg 45%
    11:00 +22°C° 0 mm 3 m/s 758 mmHg 40%
    12:00 +25°C° 0 mm 3 m/s 758 mmHg 34%
    13:00 +25°C° 0 mm 3 m/s 757 mmHg 32%
    14:00 +26°C° 0 mm 3 m/s 756 mmHg 31%
    15:00 +26°C° 0 mm 4 m/s 755 mmHg 29%
    16:00 +24°C° 0 mm 3 m/s 755 mmHg 33%
    17:00 +22°C° 0 mm 3 m/s 755 mmHg 37%
    18:00 +20°C° 0 mm 2 m/s 755 mmHg 41%
    19:00 +20°C° 0 mm 2 m/s 755 mmHg 43%
    20:00 +19°C° 0 mm 2 m/s 756 mmHg 44%
    21:00 +18°C° 0 mm 2 m/s 756 mmHg 46%
    22:00 +18°C° 0 mm 2 m/s 756 mmHg 47%
    23:00 +17°C° 0 mm 2 m/s 756 mmHg 49%

    27 Janvier, Lundi

    Heure Température Précipitation Vent Pression Humidité
    00:00 +17°C° 0 mm 2 m/s 756 mmHg 50%
    01:00 +16°C° 0 mm 2 m/s 756 mmHg 53%
    02:00 +16°C° 0 mm 2 m/s 756 mmHg 55%
    03:00 +15°C° 0 mm 2 m/s 755 mmHg 57%
    04:00 +15°C° 0 mm 2 m/s 755 mmHg 60%
    05:00 +15°C° 0 mm 2 m/s 756 mmHg 63%
    06:00 +14°C° 0 mm 2 m/s 756 mmHg 65%
    07:00 +16°C° 0 mm 2 m/s 757 mmHg 61%
    08:00 +17°C° 0 mm 2 m/s 757 mmHg 57%
    09:00 +19°C° 0 mm 2 m/s 758 mmHg 53%
    10:00 +21°C° 0 mm 2 m/s 758 mmHg 48%
    11:00 +23°C° 0 mm 2 m/s 757 mmHg 43%
    12:00 +25°C° 0 mm 2 m/s 757 mmHg 38%
    13:00 +25°C° 0 mm 2 m/s 756 mmHg 36%
    14:00 +26°C° 0 mm 3 m/s 755 mmHg 34%
    15:00 +26°C° 0 mm 3 m/s 755 mmHg 31%
    16:00 +25°C° 0 mm 3 m/s 754 mmHg 35%
    17:00 +23°C° 0 mm 2 m/s 754 mmHg 38%
    18:00 +21°C° 0 mm 2 m/s 754 mmHg 42%
    19:00 +20°C° 0 mm 2 m/s 755 mmHg 43%
    20:00 +20°C° 0 mm 1 m/s 755 mmHg 44%
    21:00 +20°C° 0 mm 1 m/s 756 mmHg 46%
    22:00 +19°C° 0 mm 1 m/s 756 mmHg 47%
    23:00 +19°C° 0 mm 1 m/s 756 mmHg 49%

    28 Janvier, Mardi

    Heure Température Précipitation Vent Pression Humidité
    00:00 +18°C° 0 mm 1 m/s 756 mmHg 50%
    01:00 +16°C° 0 mm 1 m/s 756 mmHg 52%
    02:00 +16°C° 0 mm 1 m/s 755 mmHg 55%
    03:00 +15°C° 0 mm 1 m/s 755 mmHg 57%
    04:00 +15°C° 0 mm 1 m/s 755 mmHg 58%
    05:00 +15°C° 0 mm 1 m/s 755 mmHg 60%
    06:00 +13°C° 0 mm 0 m/s 756 mmHg 61%
    07:00 +15°C° 0 mm 0 m/s 756 mmHg 56%
    08:00 +17°C° 0 mm 0 m/s 757 mmHg 51%
    09:00 +19°C° 0 mm 0 m/s 758 mmHg 45%
    10:00 +21°C° 0 mm 0 m/s 758 mmHg 41%
    11:00 +23°C° 0 mm 0 m/s 758 mmHg 36%
    12:00 +24°C° 0 mm 0 m/s 758 mmHg 31%
    13:00 +27°C° 0 mm 1 m/s 757 mmHg 30%
    14:00 +27°C° 0 mm 1 m/s 756 mmHg 28%
    15:00 +28°C° 0 mm 1 m/s 756 mmHg 26%
    16:00 +26°C° 0 mm 1 m/s 755 mmHg 30%
    17:00 +25°C° 0 mm 1 m/s 755 mmHg 34%
    18:00 +23°C° 0 mm 1 m/s 755 mmHg 37%
    19:00 +22°C° 0 mm 1 m/s 756 mmHg 39%
    20:00 +22°C° 0 mm 1 m/s 756 mmHg 40%
    21:00 +20°C° 0 mm 2 m/s 757 mmHg 42%
    22:00 +20°C° 0 mm 2 m/s 757 mmHg 42%
    23:00 +20°C° 0 mm 2 m/s 757 mmHg 43%
    Voir plus